Regional Weather Roundup
Issued by NWS

Home | Current Version | Previous Version | Graphics & Text | Print | Product List | Glossary On
Versions: 1 2 3 4 5 6 7 8 9 10 11 12 13 14 15 16 17 18 19 20 21 22 23 24 25 26 27 28 29 30 31 32 33 34 35 36 37 38 39 40 41 42 43 44 45 46 47 48 49 50
000
ASUS45 KBOI 290110
RWRID
WEATHER ROUNDUP FOR IDAHO
NATIONAL WEATHER SERVICE BOISE ID
700 PM MDT MON JUL 28 2014

NOTE: "FAIR" INDICATES FEW OR NO CLOUDS BELOW 12000 FEET
WITH NO SIGNIFICANT WEATHER AND/OR OBSTRUCTIONS TO VISIBILITY

IDZ012-014-290200-
SOUTHWEST IDAHO


CITY           SKY/WX    TMP DP  RH WIND       PRES   REMARKS
BOISE          MOSUNNY   98  41  14 SW6       29.99F HX  93
CALDWELL       MOSUNNY   97  46  17 S13       29.99S HX  93
MOUNTAIN HOME  PTSUNNY   95  41  15 SE9       30.02S HX  91
$$

IDZ016-017-290200-
SOUTHCENTRAL IDAHO


CITY           SKY/WX    TMP DP  RH WIND       PRES   REMARKS
BURLEY         PTSUNNY   84  49  29 E5        30.11F
JEROME         PTSUNNY   85  56  37 N8        30.12S
TWIN FALLS     PTSUNNY   88  46  23 NW6       30.12F
$$

IDZ019>023-290200-
SOUTHEAST IDAHO


CITY           SKY/WX    TMP DP  RH WIND       PRES   REMARKS
IDAHO FALLS    CLOUDY    78  47  33 NW13      30.18S
POCATELLO      SUNNY     81  44  27 N9        30.15S
REXBURG        CLOUDY    80  39  23 VRB3      30.17F
$$

IDZ006-010-011-018-031-032-290200-
CENTRAL IDAHO MOUNTAINS


CITY           SKY/WX    TMP DP  RH WIND       PRES   REMARKS
MCCALL         MOSUNNY   87  38  17 E3        30.16F
HAILEY         PTSUNNY   79  48  34 S5        30.23F
STANLEY          N/A     68  47  46 NW10      30.40R
SALMON         CLOUDY    84  48  28 SW8       30.11S
CHALLIS        CLOUDY    81  46  29 NW8       30.24F
$$

IDZ002-004-006-007-026-290200-
NORTHERN IDAHO


CITY           SKY/WX    TMP DP  RH WIND       PRES   REMARKS
LEWISTON       SUNNY    103  38  10 N9        29.94F HX  97
LOWELL           N/A     85  62  46 CALM      29.94R
COEUR D`ALENE  SUNNY     95  43  16 E3        30.02S HX  91
MULLAN PASS    MOSUNNY   79  38  22 CALM      30.32S
$$


USA.gov is the U.S. government's official web portal to all federal, state and local government web resources and services.